STARLINK-34307

导读 | 星芒AI

STARLINK-34307 是 SpaceX Starlink 卫星互联网项目中的一颗低轨卫星,属于第三代星链卫星(Starlink Gen2)。该卫星于2024年发射,旨在为全球用户提供高速、低延迟的宽带互联网服务。它运行在约550公里高度的近地轨道,配备先进通信设备和激光链路,以提升网络性能和卫星间通信能力。Starlink 项目致力于构建覆盖全球的卫星网络,尤其服务于偏远和网络基础设施薄弱地区。

基本信息
目录编号:
64489
目录名称:
STARLINK-34307
国际标识:
2025-133T
轨道中心:
EARTH
卫星名称:
STARLINK-34307
卫星全名:
STARLINK-34307
卫星状态:
在轨 (已飞行139 天)
发射日期:
2025-06-23 UTC
国别 :
美国 (US)
星等 :
--
轨道信息
数据来源 国际轨道数据
星历时间: 2025-11-09T01:57:41+0800
17小时前
查看轨道信息
半长轴: 6825.288km
偏心率: 0.0002244
轨道倾角: 53.160°
近地点辐角 65.094°
升交点赤经 319.132°
平近点角 295.030°
近地点: 445.621km
远地点: 448.685km
周期: 93.528分钟
每日圈数: 15.396475
详细信息
使用方式:
暂无
2D轨道图
3D轨道图
轨道高度分析图
轨道倾角分析图
轨道综合分析图
查看轨道综合分析图